Flight Track Log - Related Links

Times and Time Zones

All times are in EDT time to prevent confusion due to time zone crossing. See the JUS327 flight status page for this flight to view local times or setup timezone preferences in your user account.

Time Position Orientation Groundspeed Altitude Reporting Facility
EDT Latitude Longitude Course Direction KTS MPH feet Rate Location/Type
Tue 04:22:31 AM 42.2425 -83.5508 264° West 182 209 1,400  Level Cleveland Center
Tue 04:23:02 AM 42.2403 -83.5800 264° West 207 238 2,300 2,077 Climbing FAA TRACON SMA TRACON (SMA)
Tue 04:23:23 AM 42.2328 -83.6044 247° West 186 214 3,200 2,049 Climbing FAA TRACON SMA TRACON (SMA)
Tue 04:23:43 AM 42.2181 -83.6172 213° Southwest 212 244 3,700 1,846 Climbing FAA TRACON SMA TRACON (SMA)
Tue 04:24:02 AM 42.2003 -83.6217 190° South 211 243 4,400 2,100 Climbing FAA TRACON SMA TRACON (SMA)
Tue 04:24:23 AM 42.1761 -83.6292 193° South 238 274 5,100 2,700 Climbing FAA TRACON SMA TRACON (SMA)
Tue 04:24:42 AM 42.1544 -83.6356 192° South 257 296 6,200 3,300 Climbing FAA TRACON SMA TRACON (SMA)
Tue 04:25:03 AM 42.1269 -83.6439 193° South 263 303 7,300 3,073 Climbing FAA TRACON SMA TRACON (SMA)
Tue 04:25:23 AM 42.1042 -83.6525 196° South 272 313 8,300 3,231 Climbing FAA TRACON SMA TRACON (SMA)
Tue 04:25:42 AM 42.0817 -83.6603 194° South 273 314 9,400 3,450 Climbing FAA TRACON SMA TRACON (SMA)
Tue 04:26:03 AM 42.0525 -83.6706 195° South 279 321 10,600 3,000 Climbing FAA TRACON SMA TRACON (SMA)
Tue 04:26:22 AM 42.0281 -83.6783 193° South 287 330 11,400 2,100 Climbing FAA TRACON SMA TRACON (SMA)
Tue 04:26:43 AM 42.0031 -83.6858 193° South 299 344 12,000 2,049 Climbing FAA TRACON SMA TRACON (SMA)
Tue 04:27:03 AM 41.9689 -83.6961 193° South 325 374 12,800 2,250 Climbing FAA TRACON SMA TRACON (SMA)
Tue 04:27:23 AM 41.9403 -83.7039 191° South 337 388 13,500 2,250 Climbing FAA TRACON SMA TRACON (SMA)
Tue 04:27:43 AM 41.9114 -83.7125 193° South 345 397 14,300 2,308 Climbing FAA TRACON SMA TRACON (SMA)
Tue 04:28:02 AM 41.8839 -83.7217 194° South 349 402 15,000 2,550 Climbing FAA TRACON SMA TRACON (SMA)
Tue 04:28:23 AM 41.8458 -83.7344 194° South 351 404 16,000 2,700 Climbing FAA TRACON SMA TRACON (SMA)
Tue 04:28:42 AM 41.8161 -83.7442 194° South 354 407 16,800 2,550 Climbing FAA TRACON SMA TRACON (SMA)
Tue 04:29:03 AM 41.7794 -83.7589 197° South 357 411 17,700 2,195 Climbing FAA TRACON SMA TRACON (SMA)
Tue 04:29:23 AM 41.7500 -83.7722 199° South 360 414 18,300 2,000 Climbing FAA TRACON SMA TRACON (SMA)
Tue 04:29:42 AM 41.7208 -83.7872 201° Southwest 363 418 19,000 2,250 Climbing FAA TRACON SMA TRACON (SMA)
Tue 04:30:03 AM 41.6892 -83.8169 215° Southwest 363 418 19,800 2,195 Climbing FAA TRACON SMA TRACON (SMA)
Tue 04:30:23 AM 41.6714 -83.8503 234° Southwest 360 414 20,500 2,400 Climbing FAA TRACON SMA TRACON (SMA)
Tue 04:30:43 AM 41.6594 -83.8867 246° West 347 399 21,400 2,700 Climbing FAA TRACON SMA TRACON (SMA)
Tue 04:31:03 AM 41.6442 -83.9317 246° West 347 399 22,300 2,615 Climbing FAA TRACON SMA TRACON (SMA)
Tue 04:31:22 AM 41.6292 -83.9658 240° Southwest 348 400 23,100 2,250 Climbing FAA TRACON SMA TRACON (SMA)
Tue 04:31:43 AM 41.6142 -84.0008 240° Southwest 352 405 23,800 1,500 Climbing FAA TRACON SMA TRACON (SMA)
Tue 04:32:02 AM 41.6067 -84.0183 240° Southwest 350 403 24,100 300 Climbing FAA TRACON SMA TRACON (SMA)
Tue 04:32:43 AM 41.6067 -84.0183 217° Southwest 350 403 24,100 1,739 Level FAA TRACON SMA TRACON (SMA)
Tue 04:33:11 AM 41.5556 -84.1725 246° West 362 417 26,100 2,659 Climbing Chicago Center
Tue 04:34:11 AM 41.5261 -84.2997 253° West 362 417 28,000 1,537 Climbing Chicago Center
Tue 04:35:12 AM 41.4844 -84.4272 246° West 371 427 29,200 1,091 Climbing Chicago Center
Tue 04:36:12 AM 41.4383 -84.5536 244° Southwest 377 434 30,200 1,300 Climbing Chicago Center
Tue 04:37:12 AM 41.3958 -84.6861 247° West 386 444 31,800 1,438 Climbing Chicago Center
Tue 04:38:13 AM 41.3542 -84.8136 247° West 378 435 33,100 1,041 Climbing Chicago Center
Tue 04:39:13 AM 41.3067 -84.9422 244° Southwest 384 442 33,900 400 Climbing Chicago Center
Tue 04:40:13 AM 41.2758 -85.0781 253° West 387 445 33,900 50 Level Chicago Center
Tue 04:41:14 AM 41.2586 -85.2158 261° West 379 436 34,000  Climbing Chicago Center
Tue 04:42:14 AM 41.2428 -85.3525 261° West 374 430 33,900  Descending Chicago Center
Tue 04:43:14 AM 41.2219 -85.4850 258° West 368 423 34,000  Climbing Chicago Center
Tue 04:44:15 AM 41.2022 -85.6181 259° West 367 422 33,900 -50 Descending Chicago Center
Tue 04:45:15 AM 41.1833 -85.7508 259° West 366 421 33,900  Level Chicago Center
Tue 04:46:15 AM 41.1656 -85.8819 260° West 362 417 33,900  Level Chicago Center
Tue 04:47:16 AM 41.1450 -86.0139 258° West 365 420 33,900 50 Level Chicago Center
Tue 04:48:16 AM 41.1278 -86.1456 260° West 364 419 34,000  Climbing Chicago Center
Tue 04:49:16 AM 41.1075 -86.2792 259° West 369 425 33,900 -50 Descending Chicago Center
Tue 04:50:17 AM 41.0872 -86.4122 259° West 370 426 33,900  Level Chicago Center
Tue 04:51:17 AM 41.0664 -86.5478 259° West 375 432 33,900  Level Chicago Center
Tue 04:52:17 AM 41.0467 -86.6831 259° West 376 433 33,900 50 Level Chicago Center
Tue 04:53:18 AM 41.0256 -86.8239 259° West 375 432 34,000  Climbing Chicago Center
Tue 04:54:18 AM 41.0050 -86.9578 259° West 373 429 33,900  Descending Chicago Center
Tue 04:55:18 AM 40.9836 -87.0931 258° West 375 432 34,000  Climbing Chicago Center
Tue 04:56:19 AM 40.9622 -87.2275 258° West 376 433 33,900 -50 Descending Chicago Center
Tue 04:57:19 AM 40.9411 -87.3633 258° West 377 434 33,900  Level Chicago Center
Tue 04:58:19 AM 40.9203 -87.4967 258° West 372 428 33,900 50 Level Chicago Center
Tue 04:59:20 AM 40.8975 -87.6344 258° West 381 438 34,000  Climbing Chicago Center
Tue 05:00:20 AM 40.8781 -87.7706 259° West 379 436 33,900 -50 Descending Chicago Center
Tue 05:01:20 AM 40.8539 -87.9083 257° West 382 440 33,900 50 Level Chicago Center
Tue 05:02:21 AM 40.8256 -88.0453 255° West 387 445 34,000  Climbing Chicago Center
Tue 05:03:21 AM 40.8056 -88.1853 259° West 388 447 33,900 -50 Descending Chicago Center
Tue 05:04:21 AM 40.7850 -88.3225 259° West 384 442 33,900  Level Chicago Center
Tue 05:05:22 AM 40.7617 -88.4606 257° West 386 444 33,900  Level Chicago Center
Tue 05:06:22 AM 40.7383 -88.5978 257° West 384 442 33,900 50 Level Chicago Center
Tue 05:07:22 AM 40.7161 -88.7358 258° West 387 445 34,000  Climbing Chicago Center
Tue 05:08:23 AM 40.6906 -88.8836 257° West 388 447 33,900 -50 Descending Chicago Center
Tue 05:09:23 AM 40.6644 -89.0203 256° West 385 443 33,900  Level Chicago Center
Tue 05:10:24 AM 40.6400 -89.1597 257° West 388 447 33,900  Level Chicago Center
Tue 05:11:24 AM 40.6156 -89.3000 257° West 393 452 33,900  Level Chicago Center
Tue 05:12:24 AM 40.5906 -89.4397 257° West 393 452 33,900 50 Level Chicago Center
Tue 05:13:25 AM 40.5631 -89.5944 257° West 394 453 34,000 50 Climbing Chicago Center
Tue 05:14:25 AM 40.5375 -89.7356 257° West 399 459 34,000  Level Chicago Center
Tue 05:15:26 AM 40.5119 -89.8756 257° West 396 456 34,000 -50 Level Chicago Center
Tue 05:16:26 AM 40.4872 -90.0139 257° West 393 452 33,900 -50 Descending Chicago Center
Tue 05:17:26 AM 40.4614 -90.1492 256° West 391 450 33,900  Level Chicago Center
Tue 05:18:27 AM 40.4361 -90.2856 256° West 387 445 33,900 50 Level Chicago Center
Tue 05:19:27 AM 40.4106 -90.4203 256° West 382 440 34,000  Climbing Chicago Center
Tue 05:20:28 AM 40.3858 -90.5528 256° West 375 432 33,900 -50 Descending Chicago Center
Tue 05:21:28 AM 40.3597 -90.6850 256° West 374 430 33,900  Level Chicago Center
Tue 05:22:29 AM 40.3353 -90.8161 256° West 370 426 33,900  Level Chicago Center
Tue 05:23:29 AM 40.3108 -90.9458 256° West 367 422 33,900 54 Level Chicago Center
Tue 05:24:20 AM 40.2856 -91.0625 254° West 366 421 34,000  Climbing Kansas City Center
Tue 05:25:21 AM 40.2608 -91.1922 256° West 370 426 33,900 -48 Descending Kansas City Center
Tue 05:26:24 AM 40.2356 -91.3247 256° West 375 432 33,900  Level Kansas City Center
Tue 05:27:21 AM 40.2106 -91.4575 256° West 379 436 33,900  Level Kansas City Center
Tue 05:28:22 AM 40.1847 -91.5900 256° West 378 435 33,900  Level Kansas City Center
Tue 05:29:24 AM 40.1578 -91.7225 255° West 378 435 33,900  Level Kansas City Center
Tue 05:30:26 AM 40.1297 -91.8550 255° West 381 438 33,900  Level Kansas City Center
Tue 05:31:25 AM 40.1036 -91.9869 256° West 378 435 33,900  Level Kansas City Center
Tue 05:32:27 AM 40.0772 -92.1178 255° West 375 432 33,900  Level Kansas City Center
Tue 05:33:25 AM 40.0508 -92.2497 255° West 376 433 33,900  Level Kansas City Center
Tue 05:34:27 AM 40.0236 -92.3803 255° West 373 429 33,900  Level Kansas City Center
Tue 05:35:26 AM 39.9967 -92.5128 255° West 376 433 33,900  Level Kansas City Center
Tue 05:36:27 AM 39.9686 -92.6447 255° West 376 433 33,900  Level Kansas City Center
Tue 05:37:30 AM 39.9397 -92.7758 254° West 377 434 33,900  Level Kansas City Center
Tue 05:38:28 AM 39.9119 -92.9072 255° West 377 434 33,900  Level Kansas City Center
Tue 05:39:29 AM 39.8844 -93.0378 255° West 376 433 33,900  Level Kansas City Center
Tue 05:40:31 AM 39.8528 -93.1694 253° West 382 440 33,900  Level Kansas City Center
Tue 05:41:29 AM 39.8164 -93.2972 250° West 381 438 33,900  Level Kansas City Center
Tue 05:42:31 AM 39.7919 -93.4297 257° West 379 436 33,900  Level Kansas City Center
Tue 05:43:30 AM 39.7633 -93.5903 257° West 382 440 33,900  Level Kansas City Center
Tue 05:44:31 AM 39.7344 -93.7222 254° West 383 441 33,900  Level Kansas City Center
Tue 05:45:34 AM 39.7083 -93.8378 254° West 380 437 33,900  Level Kansas City Center
Tue 05:46:34 AM 39.6778 -93.9864 255° West 381 438 33,900  Level Kansas City Center
Tue 05:47:32 AM 39.6503 -94.1131 254° West 382 440 33,900  Level Kansas City Center
Tue 05:48:32 AM 39.6222 -94.2406 254° West 384 442 33,900  Level Kansas City Center
Tue 05:49:33 AM 39.5883 -94.3883 253° West 383 441 33,900  Level Kansas City Center
Tue 05:50:36 AM 39.5600 -94.5156 254° West 384 442 33,900  Level Kansas City Center
Tue 05:51:36 AM 39.5314 -94.6436 254° West 385 443 33,900  Level Kansas City Center
Tue 05:52:36 AM 39.4961 -94.7919 253° West 387 445 33,900  Level Kansas City Center
Tue 05:53:35 AM 39.4658 -94.9197 253° West 389 448 33,900  Level Kansas City Center
Tue 05:54:36 AM 39.4369 -95.0467 254° West 387 445 33,900  Level Kansas City Center
Tue 05:55:36 AM 39.4031 -95.1919 253° West 392 451 33,900 -992 Level Kansas City Center
Tue 05:56:37 AM 39.3722 -95.3233 253° West 384 442 31,900 -2,244 Descending Kansas City Center
Tue 05:57:39 AM 39.3350 -95.4658 251° West 389 448 29,300 -2,400 Descending Kansas City Center
Tue 05:58:37 AM 39.3078 -95.5919 254° West 385 443 27,100 -1,934 Descending Kansas City Center
Tue 05:59:40 AM 39.2828 -95.7178 256° West 376 433 25,400 -1,355 Descending Kansas City Center
Tue 06:00:41 AM 39.2556 -95.8342 253° West 361 415 24,300 -1,300 Descending Kansas City Center
Tue 06:01:40 AM 39.2197 -95.9636 250° West 346 398 22,800 -1,424 Descending Kansas City Center
Tue 06:02:39 AM 39.1919 -96.0722 252° West 334 384 21,500 -1,311 Descending Kansas City Center
Tue 06:03:39 AM 39.1650 -96.1806 252° West 331 381 20,200 -1,350 Descending Kansas City Center
Tue 06:04:39 AM 39.1353 -96.3056 253° West 328 377 18,800 -1,488 Descending Kansas City Center
Tue 06:05:40 AM 39.1100 -96.4111 253° West 322 371 17,200 -1,463 Descending Kansas City Center
Tue 06:06:42 AM 39.0831 -96.5150 252° West 321 369 15,800 -1,388 Descending Kansas City Center
Tue 06:07:41 AM 39.0533 -96.6319 252° West 314 361 14,400 -1,765 Descending Kansas City Center
Tue 06:08:41 AM 39.0297 -96.7286 253° West 294 338 12,300 -2,049 Descending Kansas City Center
Tue 06:09:44 AM 39.0061 -96.8283 253° West 276 318 10,200 -1,659 Descending Kansas City Center
Tue 06:10:44 AM 38.9858 -96.9131 253° West 258 297 8,900 -1,438 Descending Kansas City Center
Tue 06:11:45 AM 38.9653 -96.9989 253° West 243 280 7,300 -1,424 Descending Kansas City Center
Tue 06:12:42 AM 38.9628 -97.0775 268° West 229 264 6,100 -1,220 Descending Kansas City Center
Tue 06:13:43 AM 38.9625 -97.1572 270° West 214 246 4,900 -976 Descending Kansas City Center
Tue 06:14:45 AM 38.9619 -97.2253 269° West 201 231 4,100 -450 Descending Kansas City Center
Tue 06:15:43 AM 38.9714 -97.2939 280° West 193 222 4,000 -50 Descending Kansas City Center
Tue 06:16:44 AM 38.9819 -97.3586 282° West 192 221 4,000  Level Kansas City Center
Tue 06:17:44 AM 38.9992 -97.4200 290° West 178 205 4,000  Level Kansas City Center
Tue 06:18:44 AM 39.0097 -97.4731 284° West 163 188 4,000  Level Kansas City Center
Tue 06:19:46 AM 39.0256 -97.5308 289° West 163 188 4,000  Level Kansas City Center
Tue 06:20:46 AM 39.0419 -97.5831 292° West 164 189 4,000 -446 Level Kansas City Center
Tue 06:21:47 AM 39.0175 -97.6047 215° Southwest 121 139 3,100 -500 Descending Kansas City Center
Tue 06:22:46 AM 38.9864 -97.6089 186° South 116 133 3,000 -50 Descending Kansas City Center
Tue 06:23:46 AM 38.9556 -97.6164 191° South 111 128 3,000 -49 Level Kansas City Center
Tue 06:24:48 AM 38.9300 -97.6189 184° South 100 115 2,900 -344 Descending Kansas City Center
Tue 06:25:48 AM 38.9050 -97.6250 191° South 90 104 2,300 -600 Descending Kansas City Center

Login

Don't have an account? Register now (free) for customized features, flight alerts, and more!